Weather History for KBYY - December, 2012

Change the Weather History Date:

Wednesday, December 19, 2012

  Actual Average (KLBX) Record (KLBX)
Temperature  
Mean Temperature 74 °F -  
Max Temperature 81 °F 61 °F 81 °F (2008)
Min Temperature 68 °F 42 °F 33 °F (2000)
Cooling Degree Days 10    
Growing Degree Days 24 (Base 50)    
Moisture  
Dew Point 71 °F    
Average Humidity 92    
Maximum Humidity 100    
Minimum Humidity 68    
Precipitation  
Precipitation 0.00 in - - ()
Sea Level Pressure  
Sea Level Pressure 29.81 in    
Wind  
Wind Speed 12 mph (SSE)    
Max Wind Speed 25 mph    
Max Gust Speed 33 mph    
Visibility 8 miles    
Events      
Averages and records for this station are not official NWS values.
T = Trace of Precipitation, MM = Missing Value Source: NWS Daily Summary

Daily Weather History Graph

Daily Weather History Graph

Search for Another Location

Airport or City:

Trip Planner

Search our weather history database for the weather conditions in past years. The results will help you decide how hot, cold, wet, or windy it might be!

Date:

Astronomy

Dec. 19, 2012 Rise Set
Actual Time 7:12 AM CST 5:29 PM CST
Civil Twilight 6:45 AM CST 5:55 PM CST
Nautical Twilight 6:16 AM CST 6:25 PM CST
Astronomical Twilight 5:47 AM CST 6:54 PM CST
Moon 11:52 AM CST (12/19) No Moon Set
Length of Visible Light 11h 09m
Length of Day
10h 17m
Waxing Crescent, 45% of the Moon is Illuminated
Dec 19
Waxing Crescent
Dec 19
First Quarter
Dec 28
Full
Jan 4
Last Quarter
Jan 11
New

Hourly Weather History & Observations

Time (CST) Temp. Heat Index Dew Point Humidity Pressure Visibility Wind Dir Wind Speed Gust Speed Precip Events Conditions
12:15 AM 68.7 °F - 68.7 °F 100% 29.87 in 10.0 mi SE 8.1 mph - N/A   Clear
12:35 AM 68.5 °F - 68.5 °F 100% 29.87 in 7.0 mi SE 8.1 mph - N/A   Clear
12:55 AM 68.7 °F - 68.7 °F 100% 29.87 in 7.0 mi SSE 6.9 mph - N/A   Clear
1:15 AM 68.5 °F - 68.5 °F 100% 29.86 in 7.0 mi SSE 8.1 mph - N/A   Clear
1:35 AM 68.7 °F - 68.7 °F 100% 29.86 in 10.0 mi SSE 8.1 mph - N/A   Clear
1:55 AM 68.5 °F - 68.5 °F 100% 29.85 in 7.0 mi SSE 8.1 mph - N/A   Clear
2:15 AM 68.4 °F - 68.4 °F 100% 29.85 in 7.0 mi SSE 10.4 mph - N/A   Clear
2:35 AM 68.4 °F - 68.4 °F 100% 29.85 in 7.0 mi SE 9.2 mph - N/A   Scattered Clouds
2:55 AM 68.4 °F - 68.4 °F 100% 29.85 in 7.0 mi SSE 8.1 mph - N/A   Scattered Clouds
3:15 AM 68.5 °F - 68.5 °F 100% 29.84 in 7.0 mi SSE 6.9 mph - N/A   Clear
3:35 AM 68.9 °F - 68.9 °F 100% 29.84 in 5.0 mi SSE 9.2 mph - N/A   Scattered Clouds
3:55 AM 68.9 °F - 68.9 °F 100% 29.83 in 5.0 mi SSE 11.5 mph - N/A   Mostly Cloudy
4:15 AM 69.1 °F - 69.1 °F 100% 29.83 in 5.0 mi SSE 9.2 mph - N/A   Scattered Clouds
4:35 AM 69.1 °F - 69.1 °F 100% 29.82 in 5.0 mi SSE 9.2 mph - N/A   Scattered Clouds
4:55 AM 68.9 °F - 68.9 °F 100% 29.82 in 5.0 mi SSE 8.1 mph - N/A   Scattered Clouds
5:15 AM 69.4 °F - 69.4 °F 100% 29.83 in 5.0 mi SSE 10.4 mph - N/A   Scattered Clouds
5:35 AM 70.0 °F - 70.0 °F 100% 29.83 in 5.0 mi SSE 9.2 mph - N/A   Mostly Cloudy
5:55 AM 70.3 °F - 70.3 °F 100% 29.83 in 7.0 mi SSE 10.4 mph - N/A   Mostly Cloudy
6:15 AM 70.7 °F - 70.7 °F 100% 29.82 in 7.0 mi SSE 10.4 mph - N/A   Mostly Cloudy
6:35 AM 70.5 °F - 70.5 °F 100% 29.83 in 5.0 mi SSE 8.1 mph - N/A   Mostly Cloudy
6:55 AM 70.7 °F - 70.7 °F 100% 29.84 in 5.0 mi SSE 9.2 mph - N/A   Overcast
7:15 AM 70.9 °F - 70.9 °F 100% 29.84 in 5.0 mi SSE 9.2 mph - N/A   Overcast
7:35 AM 70.9 °F - 70.9 °F 100% 29.85 in 4.0 mi SSE 9.2 mph - N/A   Mostly Cloudy
7:55 AM 70.9 °F - 70.9 °F 100% 29.85 in 4.0 mi SSE 6.9 mph - N/A   Scattered Clouds
8:15 AM 71.4 °F - 71.4 °F 100% 29.86 in 4.0 mi SSE 6.9 mph - N/A   Scattered Clouds
8:35 AM 72.3 °F - 72.3 °F 100% 29.86 in 5.0 mi SSE 6.9 mph - N/A   Mostly Cloudy
8:55 AM 72.5 °F - 72.5 °F 100% 29.85 in 5.0 mi SSE 9.2 mph - N/A   Mostly Cloudy
9:15 AM 74.7 °F - 74.7 °F 100% 29.86 in 7.0 mi SSE 15.0 mph 18.4 mph N/A   Scattered Clouds
9:35 AM 76.8 °F - 76.8 °F 100% 29.87 in 7.0 mi SSE 17.3 mph 24.2 mph N/A   Scattered Clouds
9:55 AM 77.9 °F - 76.8 °F 96% 29.87 in 10.0 mi South 19.6 mph 24.2 mph N/A   Mostly Cloudy
10:15 AM 78.6 °F - 73.8 °F 85% 29.86 in 10.0 mi SSE 16.1 mph - N/A   Mostly Cloudy
10:35 AM 79.2 °F - 71.2 °F 77% 29.86 in 10.0 mi SSE 19.6 mph 29.9 mph N/A   Mostly Cloudy
10:55 AM 79.2 °F - 70.7 °F 75% 29.86 in 10.0 mi South 17.3 mph 29.9 mph N/A   Mostly Cloudy
11:15 AM 79.0 °F - 70.5 °F 75% 29.85 in 10.0 mi SSE 20.7 mph 27.6 mph N/A   Mostly Cloudy
11:35 AM 79.5 °F - 70.2 °F 73% 29.83 in 10.0 mi SSE 24.2 mph 29.9 mph N/A   Mostly Cloudy
11:55 AM 79.5 °F - 69.4 °F 71% 29.81 in 10.0 mi SSE 23.0 mph 32.2 mph N/A   Mostly Cloudy
12:15 PM 80.6 °F 83.8 °F 69.6 °F 69% 29.80 in 10.0 mi South 20.7 mph 31.1 mph N/A   Scattered Clouds
12:35 PM 81.0 °F 84.2 °F 69.4 °F 68% 29.80 in 10.0 mi South 24.2 mph 29.9 mph N/A   Mostly Cloudy
12:55 PM 81.0 °F 84.2 °F 69.6 °F 68% 29.80 in 10.0 mi South 23.0 mph 31.1 mph N/A   Mostly Cloudy
1:15 PM 80.2 °F 83.3 °F 69.8 °F 70% 29.80 in 10.0 mi South 25.3 mph 33.4 mph N/A   Overcast
1:35 PM 78.8 °F - 69.8 °F 74% 29.78 in 10.0 mi South 18.4 mph 32.2 mph N/A   Overcast
1:55 PM 79.2 °F - 69.8 °F 73% 29.77 in 10.0 mi South 23.0 mph 33.4 mph N/A   Overcast
2:15 PM 79.0 °F - 69.8 °F 73% 29.77 in 10.0 mi South 23.0 mph 29.9 mph N/A   Overcast
2:35 PM 79.5 °F - 69.8 °F 72% 29.76 in 10.0 mi South 24.2 mph 29.9 mph N/A   Overcast
2:55 PM 79.5 °F - 69.8 °F 72% 29.76 in 10.0 mi South 21.9 mph 31.1 mph N/A   Overcast
3:15 PM 79.0 °F - 70.0 °F 74% 29.76 in 10.0 mi South 23.0 mph 33.4 mph N/A   Overcast
3:35 PM 78.8 °F - 70.2 °F 75% 29.76 in 10.0 mi South 20.7 mph 28.8 mph N/A   Overcast
3:55 PM 78.4 °F - 70.7 °F 77% 29.75 in 10.0 mi South 17.3 mph 24.2 mph N/A   Overcast
4:15 PM 77.2 °F - 70.7 °F 80% 29.76 in 10.0 mi South 16.1 mph 23.0 mph N/A   Overcast
4:35 PM 76.5 °F - 71.2 °F 84% 29.76 in 7.0 mi South 15.0 mph 20.7 mph N/A   Overcast
4:55 PM 76.3 °F - 71.6 °F 85% 29.75 in 7.0 mi SSE 18.4 mph 23.0 mph N/A   Scattered Clouds
5:15 PM 75.4 °F - 71.2 °F 87% 29.74 in 7.0 mi SSE 13.8 mph - N/A   Clear
5:35 PM 74.7 °F - 73.2 °F 95% 29.73 in 7.0 mi SSE 13.8 mph 18.4 mph N/A   Scattered Clouds
5:55 PM 74.1 °F - 74.1 °F 100% 29.74 in 7.0 mi SSE 11.5 mph - N/A   Clear
6:15 PM 73.6 °F - 73.6 °F 100% 29.75 in 7.0 mi South 11.5 mph - N/A   Scattered Clouds
6:35 PM 73.4 °F - 73.4 °F 100% 29.74 in 7.0 mi SSE 10.4 mph - N/A   Mostly Cloudy
6:55 PM 73.4 °F - 73.4 °F 100% 29.75 in 7.0 mi SSE 10.4 mph - N/A   Scattered Clouds
7:15 PM 73.4 °F - 73.4 °F 100% 29.76 in 7.0 mi South 10.4 mph - N/A   Mostly Cloudy
7:35 PM 73.4 °F - 73.4 °F 100% 29.75 in 7.0 mi SSE 11.5 mph - N/A   Mostly Cloudy
7:55 PM 73.4 °F - 73.4 °F 100% 29.76 in 7.0 mi South 12.7 mph - N/A   Scattered Clouds
8:15 PM 73.6 °F - 73.6 °F 100% 29.76 in 7.0 mi South 11.5 mph - N/A   Mostly Cloudy
8:35 PM 73.6 °F - 73.6 °F 100% 29.76 in 7.0 mi South 13.8 mph - N/A   Mostly Cloudy
8:55 PM 73.4 °F - 73.4 °F 100% 29.76 in 7.0 mi South 12.7 mph - N/A   Mostly Cloudy
9:15 PM 73.0 °F - 73.0 °F 100% 29.76 in 7.0 mi SSE 12.7 mph - N/A   Mostly Cloudy
9:35 PM 72.7 °F - 72.7 °F 100% 29.76 in 7.0 mi SSE 12.7 mph 18.4 mph N/A   Scattered Clouds
9:55 PM 72.5 °F - 72.5 °F 100% 29.77 in 7.0 mi South 11.5 mph 16.1 mph N/A   Clear
10:15 PM 72.5 °F - 72.5 °F 100% 29.78 in 7.0 mi South 11.5 mph - N/A   Scattered Clouds
10:35 PM 72.7 °F - 72.7 °F 100% 29.79 in 7.0 mi South 8.1 mph - N/A   Mostly Cloudy
10:55 PM 72.9 °F - 72.9 °F 100% 29.80 in 7.0 mi South 10.4 mph - N/A   Overcast
11:15 PM 73.0 °F - 73.0 °F 100% 29.78 in 7.0 mi South 10.4 mph - N/A   Mostly Cloudy
11:35 PM 72.9 °F - 72.9 °F 100% 29.79 in 7.0 mi South 11.5 mph - N/A   Mostly Cloudy
11:55 PM 72.9 °F - 72.9 °F 100% 29.79 in 7.0 mi South 12.7 mph 17.3 mph N/A   Overcast